Time,TemperatureF,DewpointF,PressureIn,WindDirection,WindDirectionDegrees,WindSpeedMPH,WindSpeedGustMPH,Humidity,HourlyPrecipIn,Conditions,Clouds,dailyrainin,SolarRadiationWatts/m^2,SoftwareType,DateUTC
2013-02-17 00:21:00,22.0,19.0,-100.00,NW,326,2.0,4.0,88,0.00,,,0.01,0.000000,,2013-02-17 07:21:00,
2013-02-17 00:31:00,22.0,19.0,-100.00,NW,326,2.0,4.0,88,0.00,,,0.01,0.000000,,2013-02-17 07:31:00,
2013-02-17 01:21:00,21.0,18.0,-100.00,NNW,340,3.0,4.0,88,-99.99,,,0.01,0.000000,,2013-02-17 08:21:00,
2013-02-17 02:21:00,20.0,17.0,-100.00,NNW,333,2.0,4.0,88,0.00,,,0.01,0.000000,,2013-02-17 09:21:00,
2013-02-17 03:21:00,20.0,17.0,-100.00,NW,306,3.0,5.0,89,0.00,,,0.01,0.000000,,2013-02-17 10:21:00,
2013-02-17 03:31:00,20.0,17.0,-100.00,NW,306,3.0,5.0,89,0.00,,,0.01,0.000000,,2013-02-17 10:31:00,
2013-02-17 03:41:00,20.0,17.0,-100.00,NW,306,3.0,5.0,89,0.00,,,0.01,0.000000,,2013-02-17 10:41:00,
2013-02-17 03:52:00,20.0,17.0,-100.00,NW,306,3.0,5.0,89,0.00,,,0.01,0.000000,,2013-02-17 10:52:00,
2013-02-17 04:21:00,21.0,18.0,-100.00,NNW,333,2.0,4.0,87,0.00,,,0.01,0.000000,,2013-02-17 11:21:00,
2013-02-17 04:32:00,21.0,18.0,-100.00,NNW,333,2.0,4.0,87,0.00,,,0.01,0.000000,,2013-02-17 11:32:00,
2013-02-17 04:42:00,21.0,18.0,-100.00,NNW,333,2.0,4.0,87,0.00,,,0.01,0.000000,,2013-02-17 11:42:00,
2013-02-17 04:52:00,21.0,18.0,-100.00,NNW,333,2.0,4.0,87,0.00,,,0.01,0.000000,,2013-02-17 11:52:00,
2013-02-17 05:22:00,20.0,17.0,-100.00,NNW,339,2.0,5.0,88,0.00,,,0.01,0.000000,,2013-02-17 12:22:00,
2013-02-17 06:22:00,20.0,17.0,-100.00,NNW,347,2.0,4.0,87,-99.99,,,0.01,0.000000,,2013-02-17 13:22:00,
2013-02-17 06:41:00,20.0,17.0,-100.00,NNW,347,2.0,4.0,87,-99.99,,,0.01,0.000000,,2013-02-17 13:41:00,
2013-02-17 06:51:00,20.0,17.0,-100.00,NNW,347,2.0,4.0,87,-99.99,,,0.01,0.000000,,2013-02-17 13:51:00,
2013-02-17 07:21:00,21.0,17.0,-100.00,NW,324,3.0,5.0,84,0.00,,,0.01,1.000000,,2013-02-17 14:21:00,
2013-02-17 07:32:00,21.0,17.0,-100.00,NW,324,3.0,5.0,84,0.00,,,0.01,1.000000,,2013-02-17 14:32:00,
2013-02-17 08:21:00,23.0,18.0,-100.00,NW,324,2.0,5.0,82,-99.99,,,0.01,33.000000,,2013-02-17 15:21:00,
2013-02-17 08:32:00,23.0,18.0,-100.00,NW,324,2.0,5.0,82,-99.99,,,0.01,33.000000,,2013-02-17 15:32:00,
2013-02-17 09:21:00,31.0,23.0,-100.00,NNW,341,1.0,5.0,73,-99.99,,,0.01,149.000000,,2013-02-17 16:21:00,
2013-02-17 09:32:00,31.0,23.0,-100.00,NNW,341,1.0,5.0,73,-99.99,,,0.01,149.000000,,2013-02-17 16:32:00,
2013-02-17 09:42:00,31.0,23.0,-100.00,NNW,341,1.0,5.0,73,-99.99,,,0.01,149.000000,,2013-02-17 16:42:00,
2013-02-17 09:51:00,31.0,23.0,-100.00,NNW,341,1.0,5.0,73,-99.99,,,0.01,149.000000,,2013-02-17 16:51:00,
2013-02-17 10:21:00,45.0,25.0,-100.00,WNW,283,1.0,8.0,46,-99.99,,,0.00,373.000000,,2013-02-17 17:21:00,
2013-02-17 10:32:00,45.0,25.0,-100.00,WNW,283,1.0,8.0,46,-99.99,,,0.00,373.000000,,2013-02-17 17:32:00,
2013-02-17 10:42:00,45.0,25.0,-100.00,WNW,283,1.0,8.0,46,-99.99,,,0.00,373.000000,,2013-02-17 17:42:00,
2013-02-17 10:52:00,45.0,25.0,-100.00,WNW,283,1.0,8.0,46,-99.99,,,0.00,373.000000,,2013-02-17 17:52:00,
2013-02-17 11:22:00,52.0,15.0,-100.00,NNW,339,5.0,13.0,23,0.00,,,0.00,567.000000,,2013-02-17 18:22:00,
2013-02-17 11:33:00,52.0,15.0,-100.00,NNW,339,5.0,13.0,23,0.00,,,0.00,567.000000,,2013-02-17 18:33:00,
2013-02-17 11:42:00,52.0,15.0,-100.00,NNW,339,5.0,13.0,23,0.00,,,0.00,567.000000,,2013-02-17 18:42:00,
2013-02-17 11:52:00,52.0,15.0,-100.00,NNW,339,5.0,13.0,23,0.00,,,0.00,567.000000,,2013-02-17 18:52:00,
2013-02-17 12:21:00,50.0,17.0,-100.00,North,350,8.0,14.0,27,0.00,,,0.00,637.000000,,2013-02-17 19:21:00,
2013-02-17 12:32:00,50.0,17.0,-100.00,North,350,8.0,14.0,27,0.00,,,0.00,637.000000,,2013-02-17 19:32:00,
2013-02-17 12:42:00,50.0,17.0,-100.00,North,350,8.0,14.0,27,0.00,,,0.00,637.000000,,2013-02-17 19:42:00,
2013-02-17 12:51:00,50.0,17.0,-100.00,North,350,8.0,14.0,27,0.00,,,0.00,637.000000,,2013-02-17 19:51:00,
2013-02-17 13:21:00,51.0,18.0,-100.00,NW,309,6.0,17.0,27,0.00,,,0.00,656.000000,,2013-02-17 20:21:00,
2013-02-17 13:32:00,51.0,18.0,-100.00,NW,309,6.0,17.0,27,0.00,,,0.00,656.000000,,2013-02-17 20:32:00,
2013-02-17 13:42:00,51.0,18.0,-100.00,NW,309,6.0,17.0,27,0.00,,,0.00,656.000000,,2013-02-17 20:42:00,
2013-02-17 13:52:00,51.0,18.0,-100.00,NW,309,6.0,17.0,27,0.00,,,0.00,656.000000,,2013-02-17 20:52:00,
2013-02-17 14:21:00,45.0,24.0,-100.00,North,354,9.0,23.0,44,0.00,,,0.00,569.000000,,2013-02-17 21:21:00,
2013-02-17 14:32:00,45.0,24.0,-100.00,North,354,9.0,23.0,44,0.00,,,0.00,569.000000,,2013-02-17 21:32:00,
2013-02-17 14:42:00,45.0,24.0,-100.00,North,354,9.0,23.0,44,0.00,,,0.00,569.000000,,2013-02-17 21:42:00,
2013-02-17 14:52:00,45.0,24.0,-100.00,North,354,9.0,23.0,44,0.00,,,0.00,569.000000,,2013-02-17 21:52:00,
2013-02-17 15:22:00,40.0,26.0,-100.00,NNW,346,10.0,23.0,57,0.00,,,0.00,55.000000,,2013-02-17 22:22:00,
2013-02-17 15:32:00,40.0,26.0,-100.00,NNW,346,10.0,23.0,57,0.00,,,0.00,55.000000,,2013-02-17 22:32:00,
2013-02-17 15:42:00,40.0,26.0,-100.00,NNW,346,10.0,23.0,57,0.00,,,0.00,55.000000,,2013-02-17 22:42:00,
2013-02-17 15:52:00,40.0,26.0,-100.00,NNW,346,10.0,23.0,57,0.00,,,0.00,55.000000,,2013-02-17 22:52:00,
2013-02-17 16:21:00,35.0,25.0,-100.00,North,351,9.0,23.0,66,0.00,,,0.00,69.000000,,2013-02-17 23:21:00,
2013-02-17 16:32:00,35.0,25.0,-100.00,North,351,9.0,23.0,66,0.00,,,0.00,69.000000,,2013-02-17 23:32:00,
2013-02-17 16:42:00,35.0,25.0,-100.00,North,351,9.0,23.0,66,0.00,,,0.00,69.000000,,2013-02-17 23:42:00,
2013-02-17 16:52:00,35.0,25.0,-100.00,North,351,9.0,23.0,66,0.00,,,0.00,69.000000,,2013-02-17 23:52:00,
2013-02-17 17:22:00,32.0,21.0,-100.00,NNW,334,6.0,21.0,64,0.00,,,0.00,52.000000,,2013-02-18 00:22:00,
2013-02-17 17:32:00,32.0,21.0,-100.00,NNW,334,6.0,21.0,64,0.00,,,0.00,52.000000,,2013-02-18 00:32:00,
2013-02-17 17:41:00,32.0,21.0,-100.00,NNW,334,6.0,21.0,64,0.00,,,0.00,52.000000,,2013-02-18 00:41:00,
2013-02-17 17:52:00,32.0,21.0,-100.00,NNW,334,6.0,21.0,64,0.00,,,0.00,52.000000,,2013-02-18 00:52:00,
2013-02-17 18:21:00,32.0,21.0,-100.00,NNW,335,6.0,15.0,63,0.00,,,0.00,5.000000,,2013-02-18 01:21:00,
2013-02-17 18:32:00,32.0,21.0,-100.00,NNW,335,6.0,15.0,63,0.00,,,0.00,5.000000,,2013-02-18 01:32:00,
2013-02-17 18:41:00,32.0,21.0,-100.00,NNW,335,6.0,15.0,63,0.00,,,0.00,5.000000,,2013-02-18 01:41:00,
2013-02-17 18:51:00,32.0,21.0,-100.00,NNW,335,6.0,15.0,63,0.00,,,0.00,5.000000,,2013-02-18 01:51:00,
2013-02-17 19:22:00,32.0,22.0,-100.00,NNW,333,7.0,17.0,66,0.00,,,0.00,0.000000,,2013-02-18 02:22:00,
2013-02-17 19:32:00,32.0,22.0,-100.00,NNW,333,7.0,17.0,66,0.00,,,0.00,0.000000,,2013-02-18 02:32:00,
2013-02-17 19:41:00,32.0,22.0,-100.00,NNW,333,7.0,17.0,66,0.00,,,0.00,0.000000,,2013-02-18 02:41:00,
2013-02-17 19:52:00,32.0,22.0,-100.00,NNW,333,7.0,17.0,66,0.00,,,0.00,0.000000,,2013-02-18 02:52:00,
2013-02-17 20:21:00,32.0,20.0,-100.00,NW,326,8.0,25.0,62,0.00,,,0.00,0.000000,,2013-02-18 03:21:00,
2013-02-17 20:32:00,32.0,20.0,-100.00,NW,326,8.0,25.0,62,0.00,,,0.00,0.000000,,2013-02-18 03:32:00,
2013-02-17 20:42:00,32.0,20.0,-100.00,NW,326,8.0,25.0,62,0.00,,,0.00,0.000000,,2013-02-18 03:42:00,
2013-02-17 20:51:00,32.0,20.0,-100.00,NW,326,8.0,25.0,62,0.00,,,0.00,0.000000,,2013-02-18 03:51:00,
2013-02-17 21:21:00,29.0,20.0,-100.00,NNW,333,10.0,22.0,69,0.00,,,0.00,0.000000,,2013-02-18 04:21:00,
2013-02-17 21:32:00,29.0,20.0,-100.00,NNW,333,10.0,22.0,69,0.00,,,0.00,0.000000,,2013-02-18 04:32:00,
2013-02-17 21:41:00,29.0,20.0,-100.00,NNW,333,10.0,22.0,69,0.00,,,0.00,0.000000,,2013-02-18 04:41:00,
2013-02-17 21:51:00,29.0,20.0,-100.00,NNW,333,10.0,22.0,69,0.00,,,0.00,0.000000,,2013-02-18 04:51:00,
2013-02-17 22:21:00,28.0,20.0,-100.00,NNW,333,9.0,26.0,70,0.00,,,0.00,0.000000,,2013-02-18 05:21:00,
2013-02-17 22:32:00,28.0,20.0,-100.00,NNW,333,9.0,26.0,70,0.00,,,0.00,0.000000,,2013-02-18 05:32:00,
2013-02-17 22:41:00,28.0,20.0,-100.00,NNW,333,9.0,26.0,70,0.00,,,0.00,0.000000,,2013-02-18 05:41:00,
2013-02-17 22:52:00,28.0,20.0,-100.00,NNW,333,9.0,26.0,70,0.00,,,0.00,0.000000,,2013-02-18 05:52:00,
2013-02-17 23:21:00,27.0,19.0,-100.00,NNW,338,12.0,33.0,70,0.00,,,0.00,0.000000,,2013-02-18 06:21:00,
2013-02-17 23:32:00,27.0,19.0,-100.00,NNW,338,12.0,33.0,70,0.00,,,0.00,0.000000,,2013-02-18 06:32:00,
2013-02-17 23:42:00,27.0,19.0,-100.00,NNW,338,12.0,33.0,70,0.00,,,0.00,0.000000,,2013-02-18 06:42:00,
2013-02-17 23:51:00,27.0,19.0,-100.00,NNW,338,12.0,33.0,70,0.00,,,0.00,0.000000,,2013-02-18 06:51:00,